owner,sensor,date,latitude,longitude,vertical_datum,wind_speed,wind_to_direction,wind_speed_of_gust,qcFlag 
DISL,ioos:station:DISL:MBLA:1,2008-06-01T00:00:00Z,30.4367,-88.0117,14.2,5.04,131.2,-9999.0,'1111122,1111122,1111122' 
DISL,ioos:station:DISL:MBLA:1,2008-06-01T00:30:00Z,30.4367,-88.0117,14.2,4.55,145.4,-9999.0,'1111122,1111122,1111122' 
DISL,ioos:station:DISL:MBLA:1,2008-06-01T01:00:00Z,30.4367,-88.0117,14.2,4.18,147.9,-9999.0,'1111122,1111122,1111122' 
DISL,ioos:station:DISL:MBLA:1,2008-06-01T01:30:00Z,30.4367,-88.0117,14.2,4.32,137.0,-9999.0,'1111122,1111122,1111122' 
DISL,ioos:station:DISL:MBLA:1,2008-06-01T02:00:00Z,30.4367,-88.0117,14.2,4.62,143.9,-9999.0,'1111122,1111122,1111122' 
DISL,ioos:station:DISL:MBLA:1,2008-06-01T02:30:00Z,30.4367,-88.0117,14.2,5.48,122.8,-9999.0,'1111122,1111122,1111122' 
DISL,ioos:station:DISL:MBLA:1,2008-06-01T03:00:00Z,30.4367,-88.0117,14.2,5.71,132.2,-9999.0,'1111122,1111122,1111122' 
DISL,ioos:station:DISL:MBLA:1,2008-06-01T03:30:00Z,30.4367,-88.0117,14.2,4.97,129.6,-9999.0,'1111122,1111122,1111122' 
DISL,ioos:station:DISL:MBLA:1,2008-06-01T04:00:00Z,30.4367,-88.0117,14.2,5.49,142.1,-9999.0,'1111122,1111122,1111122' 
DISL,ioos:station:DISL:MBLA:1,2008-06-01T04:30:00Z,30.4367,-88.0117,14.2,5.06,131.8,-9999.0,'1111122,1111122,1111122' 
DISL,ioos:station:DISL:MBLA:1,2008-06-01T05:00:00Z,30.4367,-88.0117,14.2,5.17,125.9,-9999.0,'1111122,1111122,1111122' 
DISL,ioos:station:DISL:MBLA:1,2008-06-01T05:30:00Z,30.4367,-88.0117,14.2,5.27,122.0,-9999.0,'1111122,1111122,1111122' 
DISL,ioos:station:DISL:MBLA:1,2008-06-01T06:00:00Z,30.4367,-88.0117,14.2,5.27,131.5,-9999.0,'1111122,1111122,1111122' 
DISL,ioos:station:DISL:MBLA:1,2008-06-01T06:30:00Z,30.4367,-88.0117,14.2,4.53,142.0,-9999.0,'1111122,1111122,1111122' 
DISL,ioos:station:DISL:MBLA:1,2008-06-01T07:00:00Z,30.4367,-88.0117,14.2,5.12,145.7,-9999.0,'1111122,1111122,1111122' 
DISL,ioos:station:DISL:MBLA:1,2008-06-01T07:30:00Z,30.4367,-88.0117,14.2,4.71,148.9,-9999.0,'1111122,1111122,1111122' 
DISL,ioos:station:DISL:MBLA:1,2008-06-01T08:00:00Z,30.4367,-88.0117,14.2,4.66,149.0,-9999.0,'1111122,1111122,1111122' 
DISL,ioos:station:DISL:MBLA:1,2008-06-01T08:30:00Z,30.4367,-88.0117,14.2,5.24,153.4,-9999.0,'1111122,1111122,1111122' 
DISL,ioos:station:DISL:MBLA:1,2008-06-01T09:00:00Z,30.4367,-88.0117,14.2,5.38,145.3,-9999.0,'1111122,1111122,1111122' 
DISL,ioos:station:DISL:MBLA:1,2008-06-01T09:30:00Z,30.4367,-88.0117,14.2,4.71,182.1,-9999.0,'1111122,1111122,1111122' 
DISL,ioos:station:DISL:MBLA:1,2008-06-01T10:00:00Z,30.4367,-88.0117,14.2,4.66,188.4,-9999.0,'1111122,1111122,1111122' 
DISL,ioos:station:DISL:MBLA:1,2008-06-01T10:30:00Z,30.4367,-88.0117,14.2,3.41,218.5,-9999.0,'1111122,1111122,1111122' 
DISL,ioos:station:DISL:MBLA:1,2008-06-01T11:00:00Z,30.4367,-88.0117,14.2,2.96,236.9,-9999.0,'1111122,1111122,1111122' 
DISL,ioos:station:DISL:MBLA:1,2008-06-01T11:30:00Z,30.4367,-88.0117,14.2,2.69,247.5,-9999.0,'1111122,1111122,1111122' 
DISL,ioos:station:DISL:MBLA:1,2008-06-01T12:00:00Z,30.4367,-88.0117,14.2,2.81,256.5,-9999.0,'1111122,1111122,1111122' 
DISL,ioos:station:DISL:MBLA:1,2008-06-01T12:30:00Z,30.4367,-88.0117,14.2,2.57,262.4,-9999.0,'1111122,1111122,1111122' 
DISL,ioos:station:DISL:MBLA:1,2008-06-01T13:00:00Z,30.4367,-88.0117,14.2,2.5,253.9,-9999.0,'1111122,1111122,1111122' 
DISL,ioos:station:DISL:MBLA:1,2008-06-01T13:30:00Z,30.4367,-88.0117,14.2,2.75,262.4,-9999.0,'1111122,1111122,1111122' 
DISL,ioos:station:DISL:MBLA:1,2008-06-01T14:00:00Z,30.4367,-88.0117,14.2,3.76,282.4,-9999.0,'1111122,1111122,1111122' 
DISL,ioos:station:DISL:MBLA:1,2008-06-01T14:30:00Z,30.4367,-88.0117,14.2,3.26,315.1,-9999.0,'1111122,1111122,1111122' 
DISL,ioos:station:DISL:MBLA:1,2008-06-01T15:00:00Z,30.4367,-88.0117,14.2,2.74,297.5,-9999.0,'1111122,1111122,1111122' 
DISL,ioos:station:DISL:MBLA:1,2008-06-01T15:30:00Z,30.4367,-88.0117,14.2,2.22,324.8,-9999.0,'1111122,1111122,1111122' 
DISL,ioos:station:DISL:MBLA:1,2008-06-01T16:00:00Z,30.4367,-88.0117,14.2,1.73,2.26,-9999.0,'1111122,1111122,1111122' 
DISL,ioos:station:DISL:MBLA:1,2008-06-01T16:30:00Z,30.4367,-88.0117,14.2,0.52,28.29,-9999.0,'1111122,1111122,1111122' 
DISL,ioos:station:DISL:MBLA:1,2008-06-01T17:00:00Z,30.4367,-88.0117,14.2,1.64,53.83,-9999.0,'1111122,1111122,1111122' 
DISL,ioos:station:DISL:MBLA:1,2008-06-01T17:30:00Z,30.4367,-88.0117,14.2,2.01,110.7,-9999.0,'1111122,1111122,1111122' 
DISL,ioos:station:DISL:MBLA:1,2008-06-01T18:00:00Z,30.4367,-88.0117,14.2,2.45,124.2,-9999.0,'1111122,1111122,1111122' 
DISL,ioos:station:DISL:MBLA:1,2008-06-01T18:30:00Z,30.4367,-88.0117,14.2,3.76,115.3,-9999.0,'1111122,1111122,1111122' 
DISL,ioos:station:DISL:MBLA:1,2008-06-01T19:00:00Z,30.4367,-88.0117,14.2,4.35,123.1,-9999.0,'1111122,1111122,1111122' 
DISL,ioos:station:DISL:MBLA:1,2008-06-01T19:30:00Z,30.4367,-88.0117,14.2,5.11,141.3,-9999.0,'1111122,1111122,1111122' 
DISL,ioos:station:DISL:MBLA:1,2008-06-01T20:00:00Z,30.4367,-88.0117,14.2,6.11,136.5,-9999.0,'1111122,1111122,1111122' 
DISL,ioos:station:DISL:MBLA:1,2008-06-01T20:30:00Z,30.4367,-88.0117,14.2,7.52,137.3,-9999.0,'1111122,1111122,1111122' 
DISL,ioos:station:DISL:MBLA:1,2008-06-01T21:00:00Z,30.4367,-88.0117,14.2,7.47,159.9,-9999.0,'1111122,1111122,1111122' 
DISL,ioos:station:DISL:MBLA:1,2008-06-01T21:30:00Z,30.4367,-88.0117,14.2,7.34,161.7,-9999.0,'1111122,1111122,1111122' 
DISL,ioos:station:DISL:MBLA:1,2008-06-01T22:00:00Z,30.4367,-88.0117,14.2,6.96,161.6,-9999.0,'1111122,1111122,1111122' 
DISL,ioos:station:DISL:MBLA:1,2008-06-01T22:30:00Z,30.4367,-88.0117,14.2,7.15,162.5,-9999.0,'1111122,1111122,1111122' 
DISL,ioos:station:DISL:MBLA:1,2008-06-01T23:00:00Z,30.4367,-88.0117,14.2,7.75,163.1,-9999.0,'1111122,1111122,1111122' 
DISL,ioos:station:DISL:MBLA:1,2008-06-01T23:30:00Z,30.4367,-88.0117,14.2,6.99,169.2,-9999.0,'1111122,1111122,1111122' 
DISL,ioos:station:DISL:MBLA:1,2008-06-02T00:00:00Z,30.4367,-88.0117,14.2,6.8,178.8,-9999.0,'1111122,1111122,1111122' 
DISL,ioos:station:DISL:MBLA:1,2008-06-02T00:30:00Z,30.4367,-88.0117,14.2,6.12,176.7,-9999.0,'1111122,1111122,1111122' 
DISL,ioos:station:DISL:MBLA:1,2008-06-02T01:00:00Z,30.4367,-88.0117,14.2,5.95,175.4,-9999.0,'1111122,1111122,1111122' 
DISL,ioos:station:DISL:MBLA:1,2008-06-02T01:30:00Z,30.4367,-88.0117,14.2,5.93,173.1,-9999.0,'1111122,1111122,1111122' 
DISL,ioos:station:DISL:MBLA:1,2008-06-02T02:00:00Z,30.4367,-88.0117,14.2,5.57,178.3,-9999.0,'1111122,1111122,1111122' 
DISL,ioos:station:DISL:MBLA:1,2008-06-02T02:30:00Z,30.4367,-88.0117,14.2,4.88,186.7,-9999.0,'1111122,1111122,1111122' 
DISL,ioos:station:DISL:MBLA:1,2008-06-02T03:00:00Z,30.4367,-88.0117,14.2,4.51,195.8,-9999.0,'1111122,1111122,1111122' 
DISL,ioos:station:DISL:MBLA:1,2008-06-02T03:30:00Z,30.4367,-88.0117,14.2,3.8,204.1,-9999.0,'1111122,1111122,1111122' 
DISL,ioos:station:DISL:MBLA:1,2008-06-02T04:00:00Z,30.4367,-88.0117,14.2,2.26,186.4,-9999.0,'1111122,1111122,1111122' 
DISL,ioos:station:DISL:MBLA:1,2008-06-02T04:30:00Z,30.4367,-88.0117,14.2,3.6,127.5,-9999.0,'1111122,1111122,1111122' 
DISL,ioos:station:DISL:MBLA:1,2008-06-02T05:00:00Z,30.4367,-88.0117,14.2,5.82,140.8,-9999.0,'1111122,1111122,1111122' 
DISL,ioos:station:DISL:MBLA:1,2008-06-02T05:30:00Z,30.4367,-88.0117,14.2,7.76,158.5,-9999.0,'1111122,1111122,1111122' 
DISL,ioos:station:DISL:MBLA:1,2008-06-02T06:00:00Z,30.4367,-88.0117,14.2,8.86,164.4,-9999.0,'1111122,1111122,1111122' 
DISL,ioos:station:DISL:MBLA:1,2008-06-02T06:30:00Z,30.4367,-88.0117,14.2,9.75,166.6,-9999.0,'1111122,1111122,1111122' 
DISL,ioos:station:DISL:MBLA:1,2008-06-02T07:00:00Z,30.4367,-88.0117,14.2,8.65,179.2,-9999.0,'1111122,1111122,1111122' 
DISL,ioos:station:DISL:MBLA:1,2008-06-02T07:30:00Z,30.4367,-88.0117,14.2,7.84,177.7,-9999.0,'1111122,1111122,1111122' 
DISL,ioos:station:DISL:MBLA:1,2008-06-02T08:00:00Z,30.4367,-88.0117,14.2,5.86,192.9,-9999.0,'1111122,1111122,1111122' 
DISL,ioos:station:DISL:MBLA:1,2008-06-02T08:30:00Z,30.4367,-88.0117,14.2,4.9,264.5,-9999.0,'1111122,1111122,1111122' 
DISL,ioos:station:DISL:MBLA:1,2008-06-02T09:00:00Z,30.4367,-88.0117,14.2,5.55,236.8,-9999.0,'1111122,1111122,1111122' 
DISL,ioos:station:DISL:MBLA:1,2008-06-02T09:30:00Z,30.4367,-88.0117,14.2,5.85,241.5,-9999.0,'1111122,1111122,1111122' 
DISL,ioos:station:DISL:MBLA:1,2008-06-02T10:00:00Z,30.4367,-88.0117,14.2,6.61,264.9,-9999.0,'1111122,1111122,1111122' 
DISL,ioos:station:DISL:MBLA:1,2008-06-02T10:30:00Z,30.4367,-88.0117,14.2,5.02,279.4,-9999.0,'1111122,1111122,1111122' 
DISL,ioos:station:DISL:MBLA:1,2008-06-02T11:00:00Z,30.4367,-88.0117,14.2,5.77,259.9,-9999.0,'1111122,1111122,1111122' 
DISL,ioos:station:DISL:MBLA:1,2008-06-02T11:30:00Z,30.4367,-88.0117,14.2,7.69,248.9,-9999.0,'1111122,1111122,1111122' 
DISL,ioos:station:DISL:MBLA:1,2008-06-02T12:00:00Z,30.4367,-88.0117,14.2,7.94,248.1,-9999.0,'1111122,1111122,1111122' 
DISL,ioos:station:DISL:MBLA:1,2008-06-02T12:30:00Z,30.4367,-88.0117,14.2,8.32,253.6,-9999.0,'1111122,1111122,1111122' 
DISL,ioos:station:DISL:MBLA:1,2008-06-02T13:00:00Z,30.4367,-88.0117,14.2,9.16,258.2,-9999.0,'1111122,1111122,1111122' 
DISL,ioos:station:DISL:MBLA:1,2008-06-02T13:30:00Z,30.4367,-88.0117,14.2,7.77,261.1,-9999.0,'1111122,1111122,1111122' 
DISL,ioos:station:DISL:MBLA:1,2008-06-02T14:00:00Z,30.4367,-88.0117,14.2,6.36,268.6,-9999.0,'1111122,1111122,1111122' 
DISL,ioos:station:DISL:MBLA:1,2008-06-02T14:30:00Z,30.4367,-88.0117,14.2,5.38,276.0,-9999.0,'1111122,1111122,1111122' 
DISL,ioos:station:DISL:MBLA:1,2008-06-02T15:00:00Z,30.4367,-88.0117,14.2,3.73,293.4,-9999.0,'1111122,1111122,1111122' 
DISL,ioos:station:DISL:MBLA:1,2008-06-02T15:30:00Z,30.4367,-88.0117,14.2,2.93,314.8,-9999.0,'1111122,1111122,1111122' 
DISL,ioos:station:DISL:MBLA:1,2008-06-02T16:00:00Z,30.4367,-88.0117,14.2,2.02,324.7,-9999.0,'1111122,1111122,1111122' 
DISL,ioos:station:DISL:MBLA:1,2008-06-02T16:30:00Z,30.4367,-88.0117,14.2,2.5,340.4,-9999.0,'1111122,1111122,1111122' 
DISL,ioos:station:DISL:MBLA:1,2008-06-02T17:00:00Z,30.4367,-88.0117,14.2,1.66,5.367,-9999.0,'1111122,1111122,1111122' 
DISL,ioos:station:DISL:MBLA:1,2008-06-02T17:30:00Z,30.4367,-88.0117,14.2,1.54,24.57,-9999.0,'1111122,1111122,1111122' 
DISL,ioos:station:DISL:MBLA:1,2008-06-02T18:00:00Z,30.4367,-88.0117,14.2,2.0,68.6,-9999.0,'1111122,1111122,1111122' 
DISL,ioos:station:DISL:MBLA:1,2008-06-02T18:30:00Z,30.4367,-88.0117,14.2,3.75,139.2,-9999.0,'1111122,1111122,1111122' 
DISL,ioos:station:DISL:MBLA:1,2008-06-02T19:00:00Z,30.4367,-88.0117,14.2,4.46,134.7,-9999.0,'1111122,1111122,1111122' 
DISL,ioos:station:DISL:MBLA:1,2008-06-02T19:30:00Z,30.4367,-88.0117,14.2,5.59,140.7,-9999.0,'1111122,1111122,1111122' 
DISL,ioos:station:DISL:MBLA:1,2008-06-02T20:00:00Z,30.4367,-88.0117,14.2,5.5,156.5,-9999.0,'1111122,1111122,1111122' 
DISL,ioos:station:DISL:MBLA:1,2008-06-02T20:30:00Z,30.4367,-88.0117,14.2,6.73,160.5,-9999.0,'1111122,1111122,1111122' 
DISL,ioos:station:DISL:MBLA:1,2008-06-02T21:00:00Z,30.4367,-88.0117,14.2,7.92,153.6,-9999.0,'1111122,1111122,1111122' 
DISL,ioos:station:DISL:MBLA:1,2008-06-02T21:30:00Z,30.4367,-88.0117,14.2,8.62,155.3,-9999.0,'1111122,1111122,1111122' 
DISL,ioos:station:DISL:MBLA:1,2008-06-02T22:00:00Z,30.4367,-88.0117,14.2,8.77,162.8,-9999.0,'1111122,1111122,1111122' 
DISL,ioos:station:DISL:MBLA:1,2008-06-02T22:30:00Z,30.4367,-88.0117,14.2,9.13,162.8,-9999.0,'1111122,1111122,1111122' 
DISL,ioos:station:DISL:MBLA:1,2008-06-02T23:00:00Z,30.4367,-88.0117,14.2,8.33,172.3,-9999.0,'1111122,1111122,1111122' 
DISL,ioos:station:DISL:MBLA:1,2008-06-02T23:30:00Z,30.4367,-88.0117,14.2,8.37,185.2,-9999.0,'1111122,1111122,1111122' 
DISL,ioos:station:DISL:MBLA:1,2008-06-03T00:00:00Z,30.4367,-88.0117,14.2,8.67,180.6,-9999.0,'1111122,1111122,1111122' 
DISL,ioos:station:DISL:MBLA:1,2008-06-03T00:30:00Z,30.4367,-88.0117,14.2,7.47,180.2,-9999.0,'1111122,1111122,1111122' 
DISL,ioos:station:DISL:MBLA:1,2008-06-03T01:00:00Z,30.4367,-88.0117,14.2,6.85,191.0,-9999.0,'1111122,1111122,1111122' 
DISL,ioos:station:DISL:MBLA:1,2008-06-03T01:30:00Z,30.4367,-88.0117,14.2,6.78,189.0,-9999.0,'1111122,1111122,1111122' 
DISL,ioos:station:DISL:MBLA:1,2008-06-03T02:00:00Z,30.4367,-88.0117,14.2,6.3,184.1,-9999.0,'1111122,1111122,1111122' 
DISL,ioos:station:DISL:MBLA:1,2008-06-03T02:30:00Z,30.4367,-88.0117,14.2,6.37,181.2,-9999.0,'1111122,1111122,1111122' 
DISL,ioos:station:DISL:MBLA:1,2008-06-03T03:00:00Z,30.4367,-88.0117,14.2,6.7,172.0,-9999.0,'1111122,1111122,1111122' 
DISL,ioos:station:DISL:MBLA:1,2008-06-03T03:30:00Z,30.4367,-88.0117,14.2,6.5,177.0,-9999.0,'1111122,1111122,1111122' 
DISL,ioos:station:DISL:MBLA:1,2008-06-03T04:00:00Z,30.4367,-88.0117,14.2,6.24,172.5,-9999.0,'1111122,1111122,1111122' 
DISL,ioos:station:DISL:MBLA:1,2008-06-03T04:30:00Z,30.4367,-88.0117,14.2,7.14,166.8,-9999.0,'1111122,1111122,1111122' 
DISL,ioos:station:DISL:MBLA:1,2008-06-03T05:00:00Z,30.4367,-88.0117,14.2,7.57,171.5,-9999.0,'1111122,1111122,1111122' 
DISL,ioos:station:DISL:MBLA:1,2008-06-03T05:30:00Z,30.4367,-88.0117,14.2,8.26,164.7,-9999.0,'1111122,1111122,1111122' 
DISL,ioos:station:DISL:MBLA:1,2008-06-03T06:00:00Z,30.4367,-88.0117,14.2,8.28,176.0,-9999.0,'1111122,1111122,1111122' 
DISL,ioos:station:DISL:MBLA:1,2008-06-03T06:30:00Z,30.4367,-88.0117,14.2,7.09,177.9,-9999.0,'1111122,1111122,1111122' 
DISL,ioos:station:DISL:MBLA:1,2008-06-03T07:00:00Z,30.4367,-88.0117,14.2,7.22,181.2,-9999.0,'1111122,1111122,1111122' 
DISL,ioos:station:DISL:MBLA:1,2008-06-03T07:30:00Z,30.4367,-88.0117,14.2,7.98,183.9,-9999.0,'1111122,1111122,1111122' 
DISL,ioos:station:DISL:MBLA:1,2008-06-03T08:00:00Z,30.4367,-88.0117,14.2,7.94,180.8,-9999.0,'1111122,1111122,1111122' 
DISL,ioos:station:DISL:MBLA:1,2008-06-03T08:30:00Z,30.4367,-88.0117,14.2,7.48,187.8,-9999.0,'1111122,1111122,1111122' 
DISL,ioos:station:DISL:MBLA:1,2008-06-03T09:00:00Z,30.4367,-88.0117,14.2,7.21,191.1,-9999.0,'1111122,1111122,1111122' 
DISL,ioos:station:DISL:MBLA:1,2008-06-03T09:30:00Z,30.4367,-88.0117,14.2,5.23,207.4,-9999.0,'1111122,1111122,1111122' 
DISL,ioos:station:DISL:MBLA:1,2008-06-03T10:00:00Z,30.4367,-88.0117,14.2,5.25,218.7,-9999.0,'1111122,1111122,1111122' 
DISL,ioos:station:DISL:MBLA:1,2008-06-03T10:30:00Z,30.4367,-88.0117,14.2,5.38,206.8,-9999.0,'1111122,1111122,1111122' 
DISL,ioos:station:DISL:MBLA:1,2008-06-03T11:00:00Z,30.4367,-88.0117,14.2,5.81,230.1,-9999.0,'1111122,1111122,1111122' 
DISL,ioos:station:DISL:MBLA:1,2008-06-03T11:30:00Z,30.4367,-88.0117,14.2,6.09,226.8,-9999.0,'1111122,1111122,1111122' 
DISL,ioos:station:DISL:MBLA:1,2008-06-03T12:00:00Z,30.4367,-88.0117,14.2,5.11,240.5,-9999.0,'1111122,1111122,1111122' 
DISL,ioos:station:DISL:MBLA:1,2008-06-03T12:30:00Z,30.4367,-88.0117,14.2,4.39,257.0,-9999.0,'1111122,1111122,1111122' 
DISL,ioos:station:DISL:MBLA:1,2008-06-03T13:00:00Z,30.4367,-88.0117,14.2,3.5,256.4,-9999.0,'1111122,1111122,1111122' 
DISL,ioos:station:DISL:MBLA:1,2008-06-03T13:30:00Z,30.4367,-88.0117,14.2,2.52,259.9,-9999.0,'1111122,1111122,1111122' 
DISL,ioos:station:DISL:MBLA:1,2008-06-03T14:00:00Z,30.4367,-88.0117,14.2,2.27,260.3,-9999.0,'1111122,1111122,1111122' 
DISL,ioos:station:DISL:MBLA:1,2008-06-03T14:30:00Z,30.4367,-88.0117,14.2,2.22,292.4,-9999.0,'1111122,1111122,1111122' 
DISL,ioos:station:DISL:MBLA:1,2008-06-03T15:00:00Z,30.4367,-88.0117,14.2,0.89,297.7,-9999.0,'1111122,1111122,1111122' 
DISL,ioos:station:DISL:MBLA:1,2008-06-03T15:30:00Z,30.4367,-88.0117,14.2,0.91,30.33,-9999.0,'1111122,1111122,1111122' 
DISL,ioos:station:DISL:MBLA:1,2008-06-03T16:00:00Z,30.4367,-88.0117,14.2,0.97,102.2,-9999.0,'1111122,1111122,1111122' 
DISL,ioos:station:DISL:MBLA:1,2008-06-03T16:30:00Z,30.4367,-88.0117,14.2,3.02,115.4,-9999.0,'1111122,1111122,1111122' 
DISL,ioos:station:DISL:MBLA:1,2008-06-03T17:00:00Z,30.4367,-88.0117,14.2,4.09,124.7,-9999.0,'1111122,1111122,1111122' 
DISL,ioos:station:DISL:MBLA:1,2008-06-03T17:30:00Z,30.4367,-88.0117,14.2,5.06,143.7,-9999.0,'1111122,1111122,1111122' 
DISL,ioos:station:DISL:MBLA:1,2008-06-03T18:00:00Z,30.4367,-88.0117,14.2,5.71,143.2,-9999.0,'1111122,1111122,1111122' 
DISL,ioos:station:DISL:MBLA:1,2008-06-03T18:30:00Z,30.4367,-88.0117,14.2,6.4,145.9,-9999.0,'1111122,1111122,1111122' 
DISL,ioos:station:DISL:MBLA:1,2008-06-03T19:00:00Z,30.4367,-88.0117,14.2,6.57,153.9,-9999.0,'1111122,1111122,1111122' 
DISL,ioos:station:DISL:MBLA:1,2008-06-03T19:30:00Z,30.4367,-88.0117,14.2,6.78,159.0,-9999.0,'1111122,1111122,1111122' 
DISL,ioos:station:DISL:MBLA:1,2008-06-03T20:00:00Z,30.4367,-88.0117,14.2,7.56,156.6,-9999.0,'1111122,1111122,1111122' 
DISL,ioos:station:DISL:MBLA:1,2008-06-03T20:30:00Z,30.4367,-88.0117,14.2,8.04,146.3,-9999.0,'1111122,1111122,1111122' 
DISL,ioos:station:DISL:MBLA:1,2008-06-03T21:00:00Z,30.4367,-88.0117,14.2,8.08,154.9,-9999.0,'1111122,1111122,1111122' 
DISL,ioos:station:DISL:MBLA:1,2008-06-03T21:30:00Z,30.4367,-88.0117,14.2,8.02,156.0,-9999.0,'1111122,1111122,1111122' 
DISL,ioos:station:DISL:MBLA:1,2008-06-03T22:00:00Z,30.4367,-88.0117,14.2,7.35,155.6,-9999.0,'1111122,1111122,1111122' 
DISL,ioos:station:DISL:MBLA:1,2008-06-03T22:30:00Z,30.4367,-88.0117,14.2,6.84,150.8,-9999.0,'1111122,1111122,1111122' 
DISL,ioos:station:DISL:MBLA:1,2008-06-03T23:00:00Z,30.4367,-88.0117,14.2,6.85,151.3,-9999.0,'1111122,1111122,1111122' 
DISL,ioos:station:DISL:MBLA:1,2008-06-03T23:30:00Z,30.4367,-88.0117,14.2,6.13,159.6,-9999.0,'1111122,1111122,1111122' 
DISL,ioos:station:DISL:MBLA:1,2008-06-04T00:00:00Z,30.4367,-88.0117,14.2,7.2,154.7,-9999.0,'1111122,1111122,1111122' 
DISL,ioos:station:DISL:MBLA:1,2008-06-04T00:30:00Z,30.4367,-88.0117,14.2,7.19,164.3,-9999.0,'1111122,1111122,1111122' 
DISL,ioos:station:DISL:MBLA:1,2008-06-04T01:00:00Z,30.4367,-88.0117,14.2,7.01,159.5,-9999.0,'1111122,1111122,1111122' 
DISL,ioos:station:DISL:MBLA:1,2008-06-04T01:30:00Z,30.4367,-88.0117,14.2,6.94,151.7,-9999.0,'1111122,1111122,1111122' 
DISL,ioos:station:DISL:MBLA:1,2008-06-04T02:00:00Z,30.4367,-88.0117,14.2,7.82,153.9,-9999.0,'1111122,1111122,1111122' 
DISL,ioos:station:DISL:MBLA:1,2008-06-04T02:30:00Z,30.4367,-88.0117,14.2,8.56,151.0,-9999.0,'1111122,1111122,1111122' 
DISL,ioos:station:DISL:MBLA:1,2008-06-04T03:00:00Z,30.4367,-88.0117,14.2,8.4,159.7,-9999.0,'1111122,1111122,1111122' 
DISL,ioos:station:DISL:MBLA:1,2008-06-04T03:30:00Z,30.4367,-88.0117,14.2,8.56,147.3,-9999.0,'1111122,1111122,1111122' 
DISL,ioos:station:DISL:MBLA:1,2008-06-04T04:00:00Z,30.4367,-88.0117,14.2,8.13,149.5,-9999.0,'1111122,1111122,1111122' 
DISL,ioos:station:DISL:MBLA:1,2008-06-04T04:30:00Z,30.4367,-88.0117,14.2,8.81,151.1,-9999.0,'1111122,1111122,1111122' 
DISL,ioos:station:DISL:MBLA:1,2008-06-04T05:00:00Z,30.4367,-88.0117,14.2,8.78,147.4,-9999.0,'1111122,1111122,1111122' 
DISL,ioos:station:DISL:MBLA:1,2008-06-04T05:30:00Z,30.4367,-88.0117,14.2,9.2,145.9,-9999.0,'1111122,1111122,1111122' 
DISL,ioos:station:DISL:MBLA:1,2008-06-04T06:00:00Z,30.4367,-88.0117,14.2,9.14,150.5,-9999.0,'1111122,1111122,1111122' 
DISL,ioos:station:DISL:MBLA:1,2008-06-04T06:30:00Z,30.4367,-88.0117,14.2,9.43,155.4,-9999.0,'1111122,1111122,1111122' 
DISL,ioos:station:DISL:MBLA:1,2008-06-04T07:00:00Z,30.4367,-88.0117,14.2,9.07,154.6,-9999.0,'1111122,1111122,1111122' 
DISL,ioos:station:DISL:MBLA:1,2008-06-04T07:30:00Z,30.4367,-88.0117,14.2,9.18,151.0,-9999.0,'1111122,1111122,1111122' 
DISL,ioos:station:DISL:MBLA:1,2008-06-04T08:00:00Z,30.4367,-88.0117,14.2,9.92,147.2,-9999.0,'1111122,1111122,1111122' 
DISL,ioos:station:DISL:MBLA:1,2008-06-04T08:30:00Z,30.4367,-88.0117,14.2,9.03,153.2,-9999.0,'1111122,1111122,1111122' 
DISL,ioos:station:DISL:MBLA:1,2008-06-04T09:00:00Z,30.4367,-88.0117,14.2,9.98,152.7,-9999.0,'1111122,1111122,1111122' 
DISL,ioos:station:DISL:MBLA:1,2008-06-04T09:30:00Z,30.4367,-88.0117,14.2,9.06,151.3,-9999.0,'1111122,1111122,1111122' 
DISL,ioos:station:DISL:MBLA:1,2008-06-04T10:00:00Z,30.4367,-88.0117,14.2,9.85,151.5,-9999.0,'1111122,1111122,1111122' 
DISL,ioos:station:DISL:MBLA:1,2008-06-04T10:30:00Z,30.4367,-88.0117,14.2,9.93,154.0,-9999.0,'1111122,1111122,1111122' 
DISL,ioos:station:DISL:MBLA:1,2008-06-04T11:00:00Z,30.4367,-88.0117,14.2,8.85,158.3,-9999.0,'1111122,1111122,1111122' 
DISL,ioos:station:DISL:MBLA:1,2008-06-04T11:30:00Z,30.4367,-88.0117,14.2,8.88,160.3,-9999.0,'1111122,1111122,1111122' 
DISL,ioos:station:DISL:MBLA:1,2008-06-04T12:00:00Z,30.4367,-88.0117,14.2,8.26,151.1,-9999.0,'1111122,1111122,1111122' 
DISL,ioos:station:DISL:MBLA:1,2008-06-04T12:30:00Z,30.4367,-88.0117,14.2,7.25,146.3,-9999.0,'1111122,1111122,1111122' 
DISL,ioos:station:DISL:MBLA:1,2008-06-04T13:00:00Z,30.4367,-88.0117,14.2,7.53,143.3,-9999.0,'1111122,1111122,1111122' 
DISL,ioos:station:DISL:MBLA:1,2008-06-04T14:00:00Z,30.4367,-88.0117,14.2,7.85,131.4,-9999.0,'1111122,1111122,1111122' 
DISL,ioos:station:DISL:MBLA:1,2008-06-04T14:30:00Z,30.4367,-88.0117,14.2,8.32,129.9,-9999.0,'1111122,1111122,1111122' 
DISL,ioos:station:DISL:MBLA:1,2008-06-04T15:00:00Z,30.4367,-88.0117,14.2,7.57,125.2,-9999.0,'1111122,1111122,1111122' 
DISL,ioos:station:DISL:MBLA:1,2008-06-04T15:30:00Z,30.4367,-88.0117,14.2,7.99,126.3,-9999.0,'1111122,1111122,1111122' 
DISL,ioos:station:DISL:MBLA:1,2008-06-04T16:00:00Z,30.4367,-88.0117,14.2,8.34,125.6,-9999.0,'1111122,1111122,1111122' 
DISL,ioos:station:DISL:MBLA:1,2008-06-04T16:30:00Z,30.4367,-88.0117,14.2,7.93,125.6,-9999.0,'1111122,1111122,1111122' 
DISL,ioos:station:DISL:MBLA:1,2008-06-04T17:00:00Z,30.4367,-88.0117,14.2,7.96,120.2,-9999.0,'1111122,1111122,1111122' 
DISL,ioos:station:DISL:MBLA:1,2008-06-04T17:30:00Z,30.4367,-88.0117,14.2,8.29,128.2,-9999.0,'1111122,1111122,1111122' 
DISL,ioos:station:DISL:MBLA:1,2008-06-04T18:00:00Z,30.4367,-88.0117,14.2,7.79,127.5,-9999.0,'1111122,1111122,1111122' 
DISL,ioos:station:DISL:MBLA:1,2008-06-04T18:30:00Z,30.4367,-88.0117,14.2,7.87,124.2,-9999.0,'1111122,1111122,1111122' 
DISL,ioos:station:DISL:MBLA:1,2008-06-04T19:00:00Z,30.4367,-88.0117,14.2,7.66,132.4,-9999.0,'1111122,1111122,1111122' 
DISL,ioos:station:DISL:MBLA:1,2008-06-04T19:30:00Z,30.4367,-88.0117,14.2,8.27,134.7,-9999.0,'1111122,1111122,1111122' 
DISL,ioos:station:DISL:MBLA:1,2008-06-04T20:00:00Z,30.4367,-88.0117,14.2,7.7,133.8,-9999.0,'1111122,1111122,1111122' 
DISL,ioos:station:DISL:MBLA:1,2008-06-04T20:30:00Z,30.4367,-88.0117,14.2,8.66,126.8,-9999.0,'1111122,1111122,1111122' 
DISL,ioos:station:DISL:MBLA:1,2008-06-04T21:00:00Z,30.4367,-88.0117,14.2,8.18,129.7,-9999.0,'1111122,1111122,1111122' 
DISL,ioos:station:DISL:MBLA:1,2008-06-04T21:30:00Z,30.4367,-88.0117,14.2,9.09,133.7,-9999.0,'1111122,1111122,1111122' 
DISL,ioos:station:DISL:MBLA:1,2008-06-04T22:00:00Z,30.4367,-88.0117,14.2,8.6,138.8,-9999.0,'1111122,1111122,1111122' 
DISL,ioos:station:DISL:MBLA:1,2008-06-04T22:30:00Z,30.4367,-88.0117,14.2,8.79,131.1,-9999.0,'1111122,1111122,1111122' 
DISL,ioos:station:DISL:MBLA:1,2008-06-04T23:00:00Z,30.4367,-88.0117,14.2,8.57,130.0,-9999.0,'1111122,1111122,1111122' 
DISL,ioos:station:DISL:MBLA:1,2008-06-04T23:30:00Z,30.4367,-88.0117,14.2,7.89,133.2,-9999.0,'1111122,1111122,1111122' 
DISL,ioos:station:DISL:MBLA:1,2008-06-05T00:00:00Z,30.4367,-88.0117,14.2,7.69,132.4,-9999.0,'1111122,1111122,1111122' 
DISL,ioos:station:DISL:MBLA:1,2008-06-05T00:30:00Z,30.4367,-88.0117,14.2,6.87,130.2,-9999.0,'1111122,1111122,1111122' 
DISL,ioos:station:DISL:MBLA:1,2008-06-05T01:00:00Z,30.4367,-88.0117,14.2,7.29,128.9,-9999.0,'1111122,1111122,1111122' 
DISL,ioos:station:DISL:MBLA:1,2008-06-05T01:30:00Z,30.4367,-88.0117,14.2,7.73,127.5,-9999.0,'1111122,1111122,1111122' 
DISL,ioos:station:DISL:MBLA:1,2008-06-05T02:00:00Z,30.4367,-88.0117,14.2,7.5,117.8,-9999.0,'1111122,1111122,1111122' 
DISL,ioos:station:DISL:MBLA:1,2008-06-05T02:30:00Z,30.4367,-88.0117,14.2,7.64,124.2,-9999.0,'1111122,1111122,1111122' 
DISL,ioos:station:DISL:MBLA:1,2008-06-05T03:00:00Z,30.4367,-88.0117,14.2,7.5,118.7,-9999.0,'1111122,1111122,1111122' 
DISL,ioos:station:DISL:MBLA:1,2008-06-05T03:30:00Z,30.4367,-88.0117,14.2,7.24,124.2,-9999.0,'1111122,1111122,1111122' 
DISL,ioos:station:DISL:MBLA:1,2008-06-05T04:00:00Z,30.4367,-88.0117,14.2,8.41,107.7,-9999.0,'1111122,1111122,1111122' 